Zurück zum Katalog

FENGYUN 1C DEB

LostLEO
NORAD 32416·DEBRIS·🇨🇳 China

Gestartet May 10, 1999 von Taiyuan Satellite Launch Center

Loading…

Nächste Überflüge (nächste 24 Stunden)

TLE

VeraltetSource: Space-Track

Epoche: Aug 4, 2026, 02:57 UTC

1 32416U 99025DAC 26216.12305222  .00000375  00000-0  42749-3 0  9999
2 32416 100.7843 335.5312 0239751  52.0425 310.2115 13.65912071648307

Verfolge FENGYUN 1C DEB in Echtzeit mit AllMySat

Download on the App Store